Location: La Comballaz
(46.3780°N, 7.0817°E)
Time: 23:28:19
(UTC+00:00)

Cosmos 1726 - Pass Details

Date: 09 April 2020
Orbit: 482 x 500 km, 82.5° (Epoch: 03 June)

Event Time Altitude Azimuth Distance (km) Brightness Sun altitude
Rises 19:00:34 0° 199° (SSW) 2,581 5.7 -8.9°
Reaches altitude 10° 19:02:42 10° 205° (SSW) 1,701 4.9 -9.2°
Maximum altitude 19:06:21 51° 282° (WNW) 634 3.1 -9.8°
Drops below altitude 10° 19:10:01 10° 359° (N) 1,711 5.2 -10.4°
Sets 19:12:11 0° 5° (N) 2,597 6.0 -10.7°
